#timestamp,LO_Frequency,Hit,StdDev 
1512442815.2,286047004.8,N
1512442835.0,286047002.8,N
1512442835.9,286047002.8,N
1512442855.7,286047002.1,N
1512442875.6,286047000.9,N
1512442895.4,286047000.0,N
1512442915.3,286046998.4,N
1512442935.1,286047000.7,N
1512442936.0,286047000.7,N
1512442955.8,286047003.8,N
1512442975.7,286047005.4,N
1512442995.5,286047002.0,N
1512443015.3,286046996.7,N
1512443035.2,286046993.3,N
1512443055.0,286046994.5,N
1512443055.9,286046994.5,N
1512443075.8,286046992.1,N
1512443095.6,286046993.6,N
1512443115.4,286046996.8,N
1512443135.3,286046996.9,N
1512443155.1,286046994.4,N
1512443175.8,286046995.8,N
1512443195.7,286046998.9,N
1512443215.5,286046999.6,N
1512443235.4,286047001.2,N
1512443255.2,286046999.7,N
1512443275.0,286047003.0,N
1512443275.9,286047003.0,N
1512443295.8,286047000.2,N
1512443315.6,286047001.6,N
1512443335.5,286047001.4,N
1512443355.3,286047002.5,N
1512443375.1,286047006.7,N
1512443395.9,286047005.5,N
1512443415.7,286047003.1,N
1512443435.5,286047005.4,N
1512443455.4,286046998.2,N
1512443475.2,286046993.8,N
1512443495.1,286047000.3,N
1512443496.0,286047000.3,N
1512443515.8,286047002.1,N
1512443535.6,286047003.1,N
1512443555.5,286047005.9,N
1512443575.3,286047005.6,N
1512443595.1,286047004.4,N
1512443615.9,286046999.6,N
1512443635.7,286046995.1,N
1512443655.6,286046997.4,N
1512443675.4,286047000.3,N
1512443695.2,286047004.0,N
1512443715.1,286047002.6,N
1512443716.0,286047002.6,N
1512443735.8,286047002.5,N
1512443755.6,286047001.6,N
1512443775.5,286047000.4,N
1512443795.3,286047000.6,N
1512443815.2,286047004.3,N
1512443835.9,286047003.7,N
1512443855.7,286046998.8,N
1512443875.6,286046994.6,N
1512443895.4,286046996.4,N
1512443915.3,286047001.2,N
1512443935.1,286047002.2,N
1512443936.0,286047002.2,N
1512443955.8,286047002.6,N
1512443975.7,286047001.6,N
1512443995.5,286047001.5,N
1512444015.3,286047005.6,N
1512444035.2,286047003.8,N
1512444055.0,286047005.4,N
1512444055.9,286047005.4,N
1512444075.8,286047004.8,N
1512444095.6,286047003.8,N
1512444115.4,286047007.5,N
1512444135.3,286047007.5,N
1512444155.1,286047002.9,N
1512444175.9,286047005.2,N
1512444195.7,286047004.4,N
1512444215.5,286046999.7,N
1512444235.4,286047000.2,N
1512444255.2,286046998.2,N
1512444275.0,286047002.8,N
1512444275.9,286047002.8,N
1512444295.8,286047004.3,N
1512444315.6,286047004.8,N
1512444335.5,286047002.9,N
1512444355.3,286047001.1,N
1512444375.1,286046998.2,N
1512444395.9,286046998.1,N
1512444415.7,286046999.1,N
1512444435.5,286046996.7,N
1512444455.4,286047000.0,N
1512444475.2,286046999.2,N
1512444495.1,286046998.9,N
1512444496.0,286046998.9,N
1512444515.8,286047002.4,N
1512444535.6,286047000.9,N
1512444555.5,286046999.1,N
1512444575.3,286046992.8,N
1512444595.1,286046994.1,N
1512444615.9,286046996.5,N
1512444635.7,286046998.1,N
1512444655.6,286046999.6,N
1512444675.4,286046996.4,N
1512444695.2,286046999.5,N
1512444715.1,286047000.5,N
1512444716.0,286047000.5,N
1512444735.8,286046993.5,N
1512444755.7,286046990.9,Y
1512444775.5,286046989.8,P
1512444795.3,286046993.2,N
1512444815.2,286046995.5,N
1512444835.9,286046994.7,N
1512444855.7,286046993.6,N
1512444875.6,286046994.2,N
1512444895.4,286046999.6,N
1512444915.3,286046999.7,N
1512444935.1,286046999.6,N
1512444936.0,286046999.6,N
1512444955.8,286046997.3,N
1512444975.7,286046992.6,N
1512444995.5,286046990.5,N
1512445015.3,286046992.8,N
1512445035.2,286046990.9,N
1512445055.0,286046993.2,N
1512445055.9,286046993.2,N
1512445075.8,286046994.8,N
1512445095.6,286046989.8,Y
1512445115.4,286046996.5,P
1512445135.3,286047000.8,N
1512445155.1,286046996.4,N
1512445175.8,286046993.8,N
1512445195.7,286047001.8,N
1512445215.5,286047003.9,N
1512445235.4,286047003.3,N
1512445255.2,286047005.6,N
1512445275.0,286047003.5,N
1512445275.9,286047003.5,N
1512445295.8,286047002.5,N
1512445315.6,286046998.8,N
1512445335.4,286046999.3,N
1512445355.3,286046997.9,N
1512445375.1,286047000.9,N
1512445395.9,286047004.1,N
1512445415.7,286047000.2,N
1512445435.5,286046999.7,N
1512445455.4,286047001.0,N
1512445475.2,286047003.4,N
1512445495.0,286047004.1,N
1512445495.9,286047004.1,N
1512445515.8,286047003.4,N
1512445535.6,286047002.9,N
1512445555.5,286047004.6,N
1512445575.3,286047009.1,N
1512445595.1,286047008.9,N
1512445615.9,286047005.0,N
1512445635.7,286047007.2,N
1512445655.5,286047003.7,N
1512445675.4,286047001.7,N
1512445695.2,286047003.5,N
1512445715.1,286047002.0,N
1512445716.0,286047002.0,N
1512445735.8,286046998.7,N
1512445755.6,286046999.3,N
1512445775.5,286047002.2,N
1512445795.3,286047004.1,N
1512445815.1,286047002.1,N
1512445835.9,286046993.3,N
1512445855.7,286046994.1,N
1512445875.6,286046995.3,N
1512445895.4,286046997.1,N
1512445915.2,286046995.1,N
1512445935.1,286046997.0,N
1512445936.0,286046997.0,N
1512445955.8,286047000.2,N
1512445975.6,286047004.1,N
1512445995.5,286047005.5,N
1512446015.3,286046998.1,N
1512446035.2,286047000.8,N
1512446055.9,286047000.1,N
1512446075.7,286047004.0,N
1512446095.6,286047005.4,N
1512446115.4,286047004.0,N
1512446135.3,286047001.6,N
1512446155.1,286047000.7,N
1512446156.0,286047000.7,N
1512446175.8,286047005.6,N
1512446195.7,286047008.3,N
1512446215.5,286047009.3,N
1512446235.3,286047012.0,Y
1512446255.2,286047009.5,P
1512446275.0,286047012.7,N
1512446275.9,286047012.7,N
1512446295.8,286047013.4,N
1512446315.6,286047013.9,Y
1512446335.4,286047000.2,P
1512446355.3,286047000.1,N
1512446375.1,286046999.8,N
1512446395.9,286046999.9,N
